Flag for Brunei Weather past 2 weeks in Bandar Seri Begawan, Brunei

Now
79 °F

Thunderstorms. Broken clouds.


Feels Like: 82 °F
Forecast: 76 / 87 °F
Wind: 8 mph from West

Location: Brunei Airport

Current Time: Oct 23, 2014 at 11:20:37 AM

Latest Report: Oct 23, 2014 at 11:00 AM


Visibility: 3 mi

Pressure: 29.89 "Hg

Humidity: 89%

Dew point: 75 °F

Location of Bandar Seri BegawanLocation

Historic Weather in Bandar Seri Begawan — Graph

°F

Bandar Seri Begawan temperature yesterday

Maximum temperature yesterday: 90 °F (at 1:00 PM)
Minimum temperature yesterday: 75 °F (at 1:00 AM)
Average temperature yesterday: 81 °F

Past Weeks' High & Low Weather Summary

 TemperatureHumidityPressure
High91 °F (Oct 14, 12:00 PM)100% (Oct 8, 9:30 PM)29.92 "Hg (Oct 8, 9:30 PM)
Low73 °F (Oct 10, 2:30 AM)59% (Oct 8, 1:00 PM)29.71 "Hg (Oct 18, 3:00 PM)
Average81 °F86%29.84 "Hg
* Reported Oct 8 10:00 AM — Oct 23 10:00 AM, Bandar Seri Begawan, Weather by CustomWeather, © 2014

Note: Actual official high and low records may vary slightly from our data, if they occured in-between our weather recording intervals... More about our weather records

Advertising

Bandar Seri Begawan weather history for previous 24 hours

 ConditionsComfort  
Time TempWeatherWind HumidityBarometerVisibility
10:00 AM
Oct 23
82 °FScattered showers. Scattered clouds.12 mph84%29.89 "Hg5 mi
9:30 AM84 °FBroken clouds.5 mph84%29.89 "HgN/A
9:00 AM84 °FBroken clouds.7 mph84%29.89 "HgN/A
8:30 AM82 °FThunderstorms. Scattered clouds.6 mph89%29.89 "HgN/A
8:00 AM79 °FThunderstorms. Broken clouds.3 mph94%29.89 "HgN/A
7:30 AM79 °FThunderstorms. Broken clouds.No wind94%29.89 "HgN/A
7:00 AM77 °FThunderstorms. Broken clouds.2 mph100%29.86 "HgN/A
6:00 AM77 °FPassing clouds.1 mph94%29.83 "HgN/A
5:30 AM77 °FPassing clouds.1 mph100%29.83 "HgN/A
5:00 AM77 °FPassing clouds.2 mph100%29.83 "HgN/A
4:30 AM77 °FPassing clouds.2 mph100%29.83 "HgN/A
4:00 AM77 °FPassing clouds.2 mph100%29.83 "HgN/A
3:30 AM77 °FPassing clouds.2 mph100%29.83 "HgN/A
3:00 AM79 °FPartly cloudy.2 mph94%29.83 "HgN/A
2:30 AM79 °FThunderstorms. Partly cloudy.2 mph94%29.83 "HgN/A
2:00 AM79 °FThunderstorms. Partly cloudy.1 mph94%29.83 "HgN/A
1:30 AM79 °FThunderstorms. Partly cloudy.3 mph94%29.86 "HgN/A
1:00 AM79 °FThunderstorms. Partly cloudy.2 mph94%29.86 "HgN/A
12:30 AM79 °FPartly cloudy.1 mph89%29.86 "HgN/A
12:00 AM79 °FPartly cloudy.2 mph89%29.89 "HgN/A
11:30 PM
Oct 22
79 °FPartly cloudy.2 mph89%29.89 "HgN/A
11:00 PM79 °FPartly cloudy.5 mph94%29.89 "HgN/A
10:30 PM81 °FPassing clouds.2 mph89%29.89 "HgN/A
10:00 PM81 °FPassing clouds.2 mph89%29.89 "HgN/A
9:30 PM81 °FPartly cloudy.3 mph89%29.89 "HgN/A
9:00 PM81 °FPartly cloudy.5 mph94%29.86 "HgN/A
8:30 PM82 °FPartly cloudy.1 mph89%29.86 "HgN/A
8:00 PM84 °FPassing clouds.3 mph84%29.86 "HgN/A
7:30 PM82 °FPassing clouds.2 mph89%29.86 "HgN/A
7:00 PM82 °FThunderstorms. Passing clouds.1 mph89%29.83 "HgN/A
6:30 PM82 °FThunderstorms. Passing clouds.2 mph89%29.83 "HgN/A
6:00 PM84 °FThunderstorms. Partly sunny.5 mph84%29.83 "HgN/A
5:30 PM86 °FThunderstorms. Partly sunny.7 mph79%29.80 "HgN/A
5:00 PM86 °FThunderstorms. Partly sunny.8 mph79%29.80 "HgN/A
4:30 PM86 °FPartly sunny.12 mph79%29.80 "HgN/A
4:00 PM86 °FPartly sunny.15 mph79%29.77 "HgN/A
3:30 PM86 °FPartly sunny.14 mph79%29.80 "HgN/A
3:00 PM88 °FPartly sunny.13 mph75%29.80 "HgN/A
2:30 PM88 °FBroken clouds.14 mph70%29.80 "HgN/A
2:00 PM88 °FBroken clouds.10 mph75%29.83 "HgN/A
1:30 PM88 °FPartly sunny.9 mph75%29.83 "HgN/A
1:00 PM90 °FPartly sunny.6 mph71%29.83 "HgN/A
12:30 PM88 °FPartly sunny.9 mph75%29.86 "HgN/A
12:00 PM88 °FPartly sunny.7 mph75%29.86 "HgN/A
11:30 AM86 °FPartly sunny.5 mph75%29.89 "HgN/A
11:00 AM88 °FPartly sunny.3 mph70%29.89 "HgN/A
Weather by CustomWeather, © 2014

See weather overviewHow to use our weather pages